Altoona, PA

9:30 AM EDT on September 15, 2019 (GMT -0400)
Altoona-Blair County

Weather History for KAOO - May, 2019

Change the Weather History Date:

Friday, May 17, 2019

  Actual Average Record
Temperature  
Mean Temperature 65 °F 58 °F  
Max Temperature 75 °F 69 °F 91 °F (2017)
Min Temperature 54 °F 47 °F 27 °F (1956)
Degree Days  
Heating Degree Days 0 8  
Month to date heating degree days 99 160  
Since 1 July heating degree days 5653 6078  
Cooling Degree Days 0 1  
Month to date cooling degree days 8 7  
Year to date cooling degree days 8 13  
Growing Degree Days 15 (Base 50)    
Moisture  
Dew Point 57 °F    
Average Humidity 74    
Maximum Humidity 87    
Minimum Humidity 60    
Precipitation  
Precipitation 0.02 in 0.13 in 0.90 in (2011)
Month to date precipitation 4.08 2.01  
Year to date precipitation 16.89 12.48  
Sea Level Pressure  
Sea Level Pressure 29.84 in    
Wind  
Wind Speed 9 mph (WSW)    
Max Wind Speed 20 mph    
Max Gust Speed 25 mph    
Visibility 10 miles    
Events      
T = Trace of Precipitation, MM = Missing Value Source: NWS Daily Summary

Daily Weather History Graph

Daily Weather History Graph

Search for Another Location

Airport or City:

Astronomy

May. 17, 2019 Rise Set
Actual Time 5:55 AM EDT 8:24 PM EDT
Civil Twilight 5:24 AM EDT 8:55 PM EDT
Nautical Twilight 4:46 AM EDT 9:33 PM EDT
Astronomical Twilight 4:03 AM EDT 10:17 PM EDT
Moon 7:09 PM EDT (5/17) 5:26 AM EDT (5/17)
Length of Visible Light 15h 30m
Length of Day
14h 28m
Waxing Gibbous, 98% of the Moon is Illuminated
May 17
Waxing Gibbous
May 18
Full
May 26
Last Quarter
Jun 3
New
Jun 10
First Quarter

Hourly Weather History & Observations

Time (EDT) Temp. Dew Point Humidity Pressure Visibility Wind Dir Wind Speed Gust Speed Precip Events Conditions
12:53 AM 57.0 °F 46.9 °F 69% 29.86 in 10.0 mi SSW 9.2 mph - N/A   Clear
1:53 AM 60.1 °F 48.9 °F 67% 29.84 in 10.0 mi SSW 8.1 mph - N/A   Overcast
2:53 AM 57.9 °F 48.9 °F 72% 29.83 in 10.0 mi SW 5.8 mph - N/A   Mostly Cloudy
3:53 AM 57.9 °F 48.0 °F 70% 29.80 in 10.0 mi SSW 8.1 mph - N/A   Clear
4:53 AM 55.9 °F 48.0 °F 75% 29.80 in 10.0 mi SSW 4.6 mph - N/A   Clear
5:53 AM 55.9 °F 46.9 °F 72% 29.80 in 10.0 mi SSW 5.8 mph - N/A   Partly Cloudy
6:53 AM 57.9 °F 48.9 °F 72% 29.81 in 10.0 mi SW 5.8 mph - N/A   Partly Cloudy
7:53 AM 60.1 °F 50.0 °F 69% 29.82 in 10.0 mi West 3.5 mph - N/A   Overcast
8:53 AM 63.0 °F 54.0 °F 72% 29.83 in 10.0 mi WSW 12.7 mph - N/A   Overcast
9:53 AM 66.9 °F 57.0 °F 70% 29.82 in 10.0 mi WSW 10.4 mph - N/A   Mostly Cloudy
10:53 AM 70.0 °F 59.0 °F 68% 29.81 in 10.0 mi SW 11.5 mph - N/A   Partly Cloudy
11:53 AM 70.0 °F 59.0 °F 68% 29.80 in 10.0 mi SSW 10.4 mph - N/A   Overcast
12:53 PM 71.1 °F 59.0 °F 66% 29.80 in 10.0 mi West 10.4 mph - N/A   Overcast
1:53 PM 75.0 °F 61.0 °F 62% 29.79 in 10.0 mi WNW 16.1 mph 23.0 mph N/A   Partly Cloudy
2:53 PM 71.1 °F 60.1 °F 68% 29.82 in 10.0 mi WNW 15.0 mph 23.0 mph N/A   Overcast
3:10 PM 71.1 °F 60.1 °F 68% 29.85 in 10.0 mi WNW 13.8 mph - N/A   Overcast
3:29 PM 71.1 °F 60.1 °F 68% 29.85 in 10.0 mi West 17.3 mph 24.2 mph N/A   Mostly Cloudy
3:53 PM 71.1 °F 60.1 °F 68% 29.84 in 10.0 mi West 16.1 mph 23.0 mph N/A   Mostly Cloudy
4:16 PM 70.0 °F 60.1 °F 71% 29.86 in 10.0 mi WNW 16.1 mph 23.0 mph N/A   Mostly Cloudy
4:25 PM 71.1 °F 60.1 °F 68% 29.86 in 10.0 mi West 12.7 mph - N/A   Mostly Cloudy
4:50 PM 71.6 °F 60.8 °F 69% 29.86 in 10.0 mi West 13.8 mph - N/A   Mostly Cloudy
4:53 PM 71.1 °F 60.1 °F 68% 29.85 in 10.0 mi West 12.7 mph - N/A   Mostly Cloudy
5:20 PM 71.1 °F 60.1 °F 68% 29.85 in 10.0 mi West 9.2 mph - N/A   Scattered Clouds
5:53 PM 72.0 °F 60.1 °F 66% 29.83 in 10.0 mi West 9.2 mph - N/A   Clear
6:53 PM 71.1 °F 59.0 °F 66% 29.84 in 10.0 mi WNW 12.7 mph - N/A   Clear
7:53 PM 69.1 °F 59.0 °F 70% 29.85 in 10.0 mi West 6.9 mph - N/A   Mostly Cloudy
8:53 PM 66.0 °F 59.0 °F 78% 29.87 in 10.0 mi West 5.8 mph - N/A   Scattered Clouds
9:53 PM 66.0 °F 61.0 °F 84% 29.89 in 10.0 mi West 5.8 mph - 0.02 in   Overcast
10:53 PM 64.9 °F 61.0 °F 87% 29.90 in 10.0 mi WSW 5.8 mph - N/A   Overcast
11:14 PM 64.9 °F 61.0 °F 87% 29.92 in 10.0 mi West 4.6 mph - N/A   Overcast
11:53 PM 64.9 °F 61.0 °F 87% 29.91 in 10.0 mi Calm Calm - N/A   Overcast